Weather History for Bastia, France

Change the Weather History Date:

Monday, January 27, 2014

  Actual Average Record
Temperature  
Mean Temperature 52 °F -  
Max Temperature 62 °F 55 °F 62 °F (1999)
Min Temperature 41 °F 39 °F 32 °F (2000)
Degree Days  
Heating Degree Days 14    
Growing Degree Days 2 (Base 50)    
Moisture  
Dew Point 38 °F    
Average Humidity 58    
Maximum Humidity 77    
Minimum Humidity 30    
Precipitation  
Precipitation 0.04 in - - ()
Sea Level Pressure  
Sea Level Pressure 29.51 in    
Wind  
Wind Speed 5 mph ()    
Max Wind Speed 24 mph    
Max Gust Speed 41 mph    
Visibility 9.0 miles    
Events Rain , Thunderstorm    
Averages and records for this station are not official NWS values.
T = Trace of Precipitation, MM = Missing Value Source: Averaged Metar Reports

Daily Weather History Graph

Daily Weather History Graph

Search for Another Location

Airport:

Trip Planner

Search our weather history database for the weather conditions in past years. The results will help you decide how hot, cold, wet, or windy it might be!

Date:

Astronomy

Jan. 27, 2014 Rise Set
Actual Time 7:41 AM CET 5:28 PM CET
Civil Twilight 7:10 AM CET 5:59 PM CET
Nautical Twilight 6:36 AM CET 6:33 PM CET
Astronomical Twilight 6:03 AM CET 7:06 PM CET
Moon 4:05 AM CET (1/27) 1:57 PM CET (1/27)
Length of Visible Light 10h 48m
Length of Day
9h 47m
Waning Crescent, 17% of the Moon is Illuminated
Jan 27
Waning Crescent
Jan 30
New
Feb 6
First Quarter
Feb 15
Full
Feb 22
Last Quarter

Hourly Weather History & Observations

Time (CET) Temp. Windchill Dew Point Humidity Pressure Visibility Wind Dir Wind Speed Gust Speed Precip Events Conditions
12:00 AM 46 °F - 26 °F 33% 29.73 in 37 mi South 4.6 mph - -   Clear
12:00 AM 46.4 °F 44.3 °F 26.6 °F 46% 29.71 in 6.2 mi South 4.6 mph - N/A   Unknown
12:30 AM 46.4 °F - 24.8 °F 43% 29.71 in 6.2 mi Variable 2.3 mph - N/A   Unknown
1:00 AM 43 °F - 28 °F 42% 29.72 in 37 mi WSW 2.3 mph - -   Clear
1:00 AM 42.8 °F - 28.4 °F 57% 29.71 in 6.2 mi Variable 2.3 mph - N/A   Unknown
1:30 AM 41.0 °F - 30.2 °F 65% 29.68 in 6.2 mi Calm Calm - N/A   Overcast
2:00 AM 44 °F - 30 °F 46% 29.70 in 37 mi SW 4.6 mph - -   Clear
2:00 AM 44.6 °F 42.2 °F 30.2 °F 57% 29.68 in 6.2 mi SW 4.6 mph - N/A   Overcast
2:30 AM 44.6 °F 43.1 °F 30.2 °F 57% 29.68 in 6.2 mi SSW 3.5 mph - N/A   Mostly Cloudy
3:00 AM 46 °F - 31 °F 44% 29.66 in 12 mi South 3.5 mph - -   Mostly Cloudy
3:00 AM 46.4 °F 44.3 °F 32.0 °F 57% 29.65 in 6.2 mi South 4.6 mph - N/A   Mostly Cloudy
4:00 AM 46 °F - 31 °F 44% 29.63 in 34 mi SW 4.6 mph - -   Clear
4:46 AM 46.4 °F 44.3 °F 32.0 °F 57% 29.59 in 6.2 mi SW 4.6 mph - N/A   Mostly Cloudy
5:00 AM 46 °F - 33 °F 49% 29.60 in 12 mi SSW 4.6 mph - -   Mostly Cloudy
5:00 AM 46.4 °F 44.3 °F 33.8 °F 62% 29.59 in 6.2 mi SSW 4.6 mph - N/A   Mostly Cloudy
5:30 AM 46.4 °F 45.2 °F 33.8 °F 62% 29.56 in 6.2 mi SW 3.5 mph - N/A   Mostly Cloudy
6:00 AM 47 °F - 34 °F 50% 29.57 in 12 mi SSW 4.6 mph - -   Mostly Cloudy
6:00 AM 48.2 °F - 33.8 °F 58% 29.56 in 6.2 mi SSW 4.6 mph - N/A   Mostly Cloudy
6:30 AM 48.2 °F - 35.6 °F 62% 29.53 in 6.2 mi SSW 4.6 mph - N/A   Mostly Cloudy
7:00 AM 53 °F - 44 °F 61% 29.55 in 12 mi South 10.4 mph - -   Mostly Cloudy
7:00 AM 53.6 °F - 42.8 °F 67% 29.53 in 6.2 mi South 10.4 mph - N/A   Mostly Cloudy
7:30 AM 50.0 °F - 39.2 °F 66% 29.53 in 6.2 mi South 8.1 mph - N/A   Mostly Cloudy
8:00 AM 51 °F - 41 °F 59% 29.54 in 19 mi South 8.1 mph - -   Mostly Cloudy
8:00 AM 50.0 °F - 41.0 °F 71% 29.53 in 6.2 mi SSW 6.9 mph - N/A   Mostly Cloudy
8:30 AM 51.8 °F - 42.8 °F 71% 29.50 in 6.2 mi South 5.8 mph - N/A   Mostly Cloudy
9:00 AM 54 °F - 45 °F 62% 29.51 in 19 mi SSE 4.6 mph - -   Mostly Cloudy
9:00 AM 53.6 °F - 44.6 °F 72% 29.50 in 6.2 mi SSE 5.8 mph - N/A   Mostly Cloudy
9:34 AM 51.8 °F - 42.8 °F 71% 29.50 in 6.2 mi SSW 3.5 mph - N/A   Mostly Cloudy
10:00 AM 53 °F - 45 °F 65% 29.50 in 19 mi North 2.3 mph - -   Mostly Cloudy
10:00 AM 53.6 °F - 44.6 °F 72% 29.50 in 6.2 mi Variable 2.3 mph - N/A   Mostly Cloudy
10:30 AM 53.6 °F - 46.4 °F 77% 29.47 in 6.2 mi Variable 3.5 mph - N/A   Mostly Cloudy
11:00 AM 55 °F - 47 °F 67% 29.50 in 19 mi West 2.3 mph - - Rain Light Rain Showers
11:00 AM 55.4 °F - 46.4 °F 72% 29.47 in 6.2 mi West 2.3 mph - N/A   Mostly Cloudy
11:30 AM 55.4 °F - 48.2 °F 77% 29.47 in 6.2 mi Calm Calm - N/A   Mostly Cloudy
12:00 PM 57 °F - 47 °F 59% 29.46 in 19 mi SSW 2.3 mph - -   Mostly Cloudy
12:00 PM 57.2 °F - 48.2 °F 72% 29.44 in 6.2 mi Variable 2.3 mph - N/A   Scattered Clouds
12:34 PM 59.0 °F - 44.6 °F 59% 29.42 in 6.2 mi Variable 1.2 mph - N/A   Scattered Clouds
1:00 PM 60 °F - 45 °F 47% 29.44 in 19 mi NE 1.2 mph - -   Partly Cloudy
1:00 PM 59.0 °F - 44.6 °F 59% 29.42 in 6.2 mi Variable 1.2 mph - N/A   Scattered Clouds
1:30 PM 60.8 °F - 46.4 °F 59% 29.42 in 6.2 mi NNE 3.5 mph - N/A   Scattered Clouds
2:00 PM 59 °F - 45 °F 50% 29.43 in 19 mi ENE 2.3 mph - -   Scattered Clouds
2:00 PM 57.2 °F - 46.4 °F 67% 29.42 in 6.2 mi NE 3.5 mph - N/A   Scattered Clouds
2:30 PM 60.8 °F - 44.6 °F 55% 29.42 in 6.2 mi North 4.6 mph - N/A   Scattered Clouds
3:00 PM 60 °F - 44 °F 44% 29.42 in 19 mi SSE 3.5 mph - -   Partly Cloudy
3:00 PM 60.8 °F - 42.8 °F 52% 29.39 in 6.2 mi South 3.5 mph - N/A   Scattered Clouds
3:30 PM 59.0 °F - 42.8 °F 55% 29.42 in 6.2 mi Variable 3.5 mph - N/A   Mostly Cloudy
4:00 PM 59 °F - 44 °F 46% 29.44 in 9 mi Calm Calm - -   Mostly Cloudy
4:00 PM 59.0 °F - 44.6 °F 59% 29.42 in 6.2 mi Calm Calm - N/A Rain Rain Showers
4:30 PM 53.6 °F - 41.0 °F 62% 29.44 in 6.2 mi WNW 11.5 mph - N/A Rain , Thunderstorm Light Thunderstorms and Rain
4:50 PM 50.0 °F - 42.8 °F 76% 29.44 in 6.2 mi NNW 16.1 mph - N/A Rain , Thunderstorm Light Thunderstorms and Rain
5:00 PM 50 °F - 42 °F 67% 29.48 in 6 mi WNW 19.6 mph - - Rain , Thunderstorm Thunderstorms and Rain
5:04 PM 50.0 °F - 42.8 °F 76% 29.47 in 6.2 mi WNW 17.3 mph 32.2 mph N/A Rain , Thunderstorm Light Thunderstorms and Rain
5:30 PM 48.2 °F - 39.2 °F 71% 29.44 in 6.2 mi West 16.1 mph 29.9 mph N/A Rain Light Rain Showers
6:00 PM 50 °F - 35 °F 44% 29.46 in 6 mi WSW 13.8 mph - - Thunderstorm Light Thunderstorm
6:00 PM 50.0 °F - 35.6 °F 58% 29.44 in 6.2 mi WSW 13.8 mph - N/A   Mostly Cloudy
6:30 PM 51.8 °F - 33.8 °F 50% 29.44 in 6.2 mi WSW 19.6 mph - N/A   Mostly Cloudy
7:00 PM 53 °F - 31 °F 30% 29.47 in 19 mi West 24.2 mph - -   Partly Cloudy
7:04 PM 51.8 °F - 32.0 °F 47% 29.47 in 6.2 mi WSW 23.0 mph 41.4 mph N/A   Mostly Cloudy
7:30 PM 50.0 °F - 35.6 °F 58% 29.50 in 6.2 mi West 20.7 mph 35.7 mph N/A Rain Light Rain Showers
8:00 PM 51 °F - 32 °F 35% 29.49 in 12 mi WSW 13.8 mph - - Rain Light Rain
8:00 PM 51.8 °F - 30.2 °F 44% 29.47 in 6.2 mi WSW 13.8 mph - N/A Rain Light Rain Showers
8:30 PM 46.4 °F 42.4 °F 35.6 °F 66% 29.47 in 6.2 mi SW 8.1 mph - N/A   Mostly Cloudy
9:00 PM 47 °F - 36 °F 56% 29.48 in 19 mi WSW 8.1 mph - - Rain Light Rain Showers
9:00 PM 46.4 °F 42.4 °F 35.6 °F 66% 29.47 in 6.2 mi WSW 8.1 mph - N/A   Mostly Cloudy
9:30 PM 48.2 °F - 37.4 °F 66% 29.44 in 6.2 mi NNW 8.1 mph - N/A   Scattered Clouds
10:00 PM 51 °F - 37 °F 49% 29.47 in 19 mi West 10.4 mph - - Rain Light Rain Showers
10:00 PM 50.0 °F - 37.4 °F 62% 29.44 in 6.2 mi West 8.1 mph - N/A   Mostly Cloudy
10:30 PM 51.8 °F - 35.6 °F 54% 29.44 in 6.2 mi West 16.1 mph - N/A   Mostly Cloudy
11:00 PM 52 °F - 36 °F 42% 29.45 in 19 mi WNW 17.3 mph - - Rain Light Rain Showers
11:00 PM 51.8 °F - 35.6 °F 54% 29.44 in 6.2 mi WNW 13.8 mph - N/A   Scattered Clouds
11:30 PM 50.0 °F - 35.6 °F 58% 29.44 in 6.2 mi West 8.1 mph - N/A   Mostly Cloudy